EW9741 Weather Reports


time (UTC)temp
C
wind
direction
speed
KPH
gust
KPH
rain 1hr
cm
rain 24hr
cm
rain mn
cm
humidity
%
barometer
mb
20260505041514 19 218 0.0 0.0 0.00 0.00 0.00 59 1006.0
20260505040014 19 221 0.0 0.0 0.00 0.00 0.00 59 1006.2
20260505034514 19 198 0.0 0.0 0.00 0.00 0.00 59 1006.1
20260505033011 19 210 0.0 0.0 0.00 0.00 0.00 59 1006.0
20260505031508 20 236 0.0 0.0 0.00 0.00 0.00 59 1006.0
20260505030007 19 248 0.0 0.0 0.00 0.00 0.00 59 1005.8
20260505024510 19 248 0.0 0.0 0.00 0.00 0.00 59 1005.6
20260505023005 20 150 0.0 0.0 0.00 0.00 0.00 59 1005.5
20260505021502 20 172 0.0 0.0 0.00 0.00 0.00 58 1005.3
20260505020106 20 226 0.0 0.0 0.00 0.00 0.00 58 1005.0
20260505014559 20 160 0.0 0.0 0.00 0.00 0.00 57 1005.0
20260505013106 20 193 0.0 0.0 0.00 0.00 0.00 56 1004.8
20260505011554 20 221 0.0 0.0 0.00 0.00 0.00 55 1004.8
20260505010109 21 232 0.0 0.0 0.00 0.00 0.00 54 1004.7
20260505004549 21 139 0.0 0.0 0.00 0.00 0.00 52 1004.7
20260505003049 21 182 0.0 0.0 0.00 0.00 0.00 50 1004.7
20260505001541 22 170 0.0 0.0 0.00 0.00 0.00 48 1004.8
20260505000045 22 237 0.0 9.7 0.00 0.00 0.00 47 1005.0
20260504234536 22 252 1.6 19.3 0.00 0.00 0.00 46 1005.2
20260504233038 23 245 1.6 20.9 0.00 0.00 0.00 44 1005.2
20260504231528 23 132 0.0 0.0 0.00 0.00 0.00 44 1005.4
20260504230028 23 221 0.0 20.9 0.00 0.00 0.00 44 1005.5
20260504224526 23 222 1.6 19.3 0.00 0.00 0.00 43 1005.6
20260504223025 23 234 3.2 22.5 0.00 0.00 0.00 45 1005.6
20260504221520 23 168 0.0 0.0 0.00 0.00 0.00 50 1005.4
20260504220017 23 271 0.0 6.4 0.00 0.00 0.00 48 1005.8
20260504214514 23 302 0.0 0.0 0.00 0.00 0.00 49 1006.0
20260504213016 23 264 0.0 0.0 0.00 0.00 0.00 48 1006.1
20260504211509 23 281 0.0 0.0 0.00 0.00 0.00 47 1006.3
20260504210006 23 268 0.0 16.1 0.00 0.00 0.00 47 1006.4
20260504204505 23 295 0.0 9.7 0.00 0.00 0.00 48 1006.5
20260504203002 23 95 0.0 17.7 0.00 0.00 0.00 49 1006.8
20260504201558 23 251 0.0 14.5 0.00 0.00 0.00 49 1007.0
20260504200057 22 219 0.0 20.9 0.00 0.00 0.00 49 1007.2
20260504194602 22 202 0.0 6.4 0.00 0.00 0.00 51 1007.5
20260504193052 21 296 4.8 24.1 0.00 0.00 0.00 53 1007.9
20260504191525 21 301 0.0 1.6 0.00 0.00 0.00 55 1008.0
20260504190018 20 245 1.6 19.3 0.00 0.00 0.00 59 1008.3
20260504184546 20 257 0.0 12.9 0.00 0.00 0.00 59 1008.3
20260504183047 20 280 0.0 0.0 0.00 0.00 0.00 59 1008.3
20260504181546 20 216 0.0 27.4 0.00 0.00 0.00 57 1008.1
20260504180044 20 215 1.6 17.7 0.00 0.00 0.00 57 1007.8
20260504174543 20 200 0.0 25.7 0.00 0.00 0.00 54 1007.7
20260504173041 20 267 0.0 20.9 0.00 0.00 0.00 58 1007.9
20260504171537 20 266 0.0 19.3 0.00 0.00 0.00 59 1007.3
20260504081537 10 210 0.0 0.0 0.00 0.00 0.00 63 1009.8
20260504050011 11 176 0.0 0.0 0.00 0.00 0.00 59 1011.4
20260504044514 11 168 0.0 0.0 0.00 0.00 0.00 59 1011.5
20260504043010 11 141 0.0 0.0 0.00 0.00 0.00 59 1011.5